Погода в Парусном

Россия / Калининградская область     54˚46′23″N   20˚01′21″E
темп.,
°C
ветер,
м/с
пор.,
м/с
влажн.,
%
обл.,
%
осадки,
мм/ч
давл.,
гПа
погр.,
м
18 января, пн
пн1823:00−10˚ю239194 0.0 1022193
02:00−7˚ююз459397 0.1 1022253
05:00−8˚ююз4689100 0.1 1021227
08:00−7˚ююз468799 0.1 1020200
11:00−6˚ююз4586100 0.0 1021323
14:00−6˚ю5684100 0.0 1020319
17:00−7˚ююз5784100 0.0 1019252
20:00−7˚ююз5784100 0.0 1018268
19 января, вт
вт1923:00−8˚ю6884100 0.0 1017288
02:00−7˚ю6982100 0.0 1015339
05:00−7˚ююв71095100 0.3 1012345
08:00−5˚ююв71095100 1.4 1011378
11:00−3˚ю5794100 0.4 1010272
14:00ю4694100 0.4 1009292
17:00+2˚ююз4697100 0.2 1008269
20:00+2˚ю5894100 0.3 1007391
20 января, ср
ср2023:00+1˚ю71098100 0.5 1006481
02:00+1˚ю81197100 0.9 1004583
05:00+1˚ююв81290100 0.1 1002428
08:00+2˚ююв81393100 0.3 1001418
11:00+3˚ююз81298100 2.3 1001353
14:00+3˚ююз91496100 4.0 1001457
17:00+3˚юз91495100 3.2 1000557
20:00+3˚юз91491100 4.7 1001499
21 января, чт
чт2123:00+3˚юз91391100 0.3 1001443
02:00+3˚юз81390100 0.4 1002384
05:00+3˚ююз8128798 0.0 1001354
08:00+3˚ююз8128590 0.0 1001373
11:00+3˚ююз8147968 0.0 1001409
14:00+4˚ююз8138146 0.0 1002308
17:00+3˚ююз6118826 0.0 1001300
20:00+3˚ю8138844 0.0 1000341
22 января, пт
пт2223:00+3˚ю9148716 0.0 999433
02:00+3˚ю8128927 0.0 999388
05:00+2˚ююз7119172 0.0 999367
08:00+2˚ююз7119180 0.0 999339
11:00+3˚ю71086100 0.0 999315
14:00+4˚ю61289100 0.0 998477
17:00+4˚ю51290100 0.0 997354
20:00+3˚ю5990100 0.0 997270